Location: Lecco
(45.8566°N, 9.3977°E)
Time: 15:41:36
(UTC+02:00)

Courier 1B Rocket - Pass Details

Date: 03 September 2019
Orbit: 920 x 1202 km, 28.2° (Epoch: 22 October)

Event Time Altitude Azimuth Distance (km) Brightness Sun altitude
Rises 01:40:42 0° 234° (SW) 3,604 - -36.2°
Reaches altitude 10° 01:44:19 10° 215° (SW) 2,699 - -36.2°
Maximum altitude 01:48:12 17° 178° (S) 2,307 - -36.1°
Drops below altitude 10° 01:52:13 10° 141° (SE) 2,812 - -36.0°
Sets 01:56:06 0° 122° (ESE) 3,827 - -35.9°
